Location: Del Amo
(33.8464°N, 118.2104°W)
Time: 04:35:21
(UTC+00:00)

S-56A Canister/Altair - Pass Details

Date: 13 September 2024
Orbit: 636 x 2487 km, 38.9° (Epoch: 05 October)

Event Time Altitude Azimuth Distance (km) Brightness Sun altitude
Rises 04:56:19 0° 276° (W) 3,683 11.8 -34.8°
Reaches altitude 10° 04:58:35 10° 280° (W) 2,922 11.1 -35.2°
Maximum altitude 05:05:50 64° 1° (N) 1,568 9.0 -36.4°
Enters shadow 05:06:46 61° 29° (NNE) 1,654 9.0 -36.5°
Drops below altitude 10° 05:16:59 10° 82° (E) 4,380 - -38.2°
Sets 05:21:10 0° 85° (E) 5,633 - -38.9°
